星链-35406(STARLINK-35406)

导读 | 豆包AI

STARLINK-35406是美国SpaceX星链星座的卫星,于2025年9月26日发射,星链项目是美国打造的低轨卫星互联网星座计划,通过大规模部署卫星为全球提供高速互联网接入服务。该卫星属于星链组网的组成部分,延续了星链卫星的技术路线,承担对地信号覆盖与数据传输任务,进一步扩充星链星座的在轨规模与服务覆盖能力。

基本信息
目录编号:
65795
目录名称:
STARLINK-35406
国际标识:
2025-218E
轨道中心:
EARTH
卫星名称:
星链-35406
卫星全名:
星链-35406(STARLINK-35406)
卫星状态:
在轨 (已飞行215 天)
发射日期:
2025-09-26 UTC
国别 :
美国 (US)
星等 :
--
轨道信息
数据来源 国际轨道数据 AOE轨道数据
星历时间 2026-04-29T05:41:36+0800
9小时前
查看轨道信息
2026-04-22T21:00:00+0800
6天前
查看轨道信息
半长轴 6927.625km 6927.603km
偏心率 0.000141 0.000193
轨道倾角 97.564° 97.588°
近地点辐角 79.858° 71.335°
升交点赤经 342.385° 336.136°
平近点角 280.281° 25.158°
近地点 548.511km 548.128km
远地点 550.465km 550.804km
周期 95.639分钟 95.639分钟
每日圈数 15.056577 15.05665
详细信息
固有亮度:
5
最大亮度:
2.5
卫星平台:
Starlink V1.0
覆盖范围:
全球
运营商:
太空探索技术公司
运营商所在国:
美国
制造商(研发单位):
太空探索技术公司
制造商所在国:
美国
使用方式:
暂无
卫星简介
Starlink 计划是 SpaceX 推出的全球卫星互联网项目,通过发射低轨道卫星,为全球尤其是偏远地区提供高速、低延迟的互联网服务。自 2019 年起,Starlink 已部署数千颗卫星,旨在缩小全球数字鸿沟,推动互联网普及。该项目还为军事、航空等行业提供通信支持,带来广泛经济效益。
2D轨道图
3D轨道图
轨道高度分析图
轨道倾角分析图
轨道综合分析图
查看轨道综合分析图